Tracking 29892 objects as of 21-Nov-2024
HD Live streaming from Space Station
objects crossing your sky now

NOAA 16 DEB

Track NOAA 16 DEB now!
10-day predictions


NORAD ID: 42365
Int'l Code: 2000-055RH
Perigee: 731.5 km
Apogee: 793.7 km
Inclination: 99.0 °
Period: 99.9 minutes
Semi major axis: 7133 km
RCS: Unknown
Launch date: September 21, 2000
Source: United States (US)
Launch site: AIR FORCE WESTERN TEST RANGE (AFWTR)

Note: This is SATELLITE DEBRIS
Your satellite tracking list
Your tracking list is empty




NASA's NSSDC Master Catalog

Two Line Element Set (TLE):
1 42365U 00055RH  24325.90152997  .00011896  00000-0  36743-2 0  9998
2 42365  98.9822 130.5977 0043620  33.8273 326.5683 14.40916860455751
Source of the keplerian elements: AFSPC